Wink, TX

9:47 PM CST on February 25, 2018 (GMT -0600)
Winkler County

Weather History for KINK - November, 2012

Change the Weather History Date:

Saturday, November 10, 2012

  Actual Average Record
Temperature  
Mean Temperature 70 °F -  
Max Temperature 84 °F 69 °F 88 °F (2007)
Min Temperature 55 °F 37 °F 21 °F (1977)
Cooling Degree Days 4    
Growing Degree Days 20 (Base 50)    
Moisture  
Dew Point 46 °F    
Average Humidity 49    
Maximum Humidity 83    
Minimum Humidity 14    
Precipitation  
Precipitation 0.00 in - - ()
Sea Level Pressure  
Sea Level Pressure 29.68 in    
Wind  
Wind Speed 13 mph (South)    
Max Wind Speed 23 mph    
Max Gust Speed 39 mph    
Visibility 10 miles    
Events Rain , Thunderstorm    
Averages and records for this station are not official NWS values.
T = Trace of Precipitation, MM = Missing Value Source: NWS Daily Summary

Daily Weather History Graph

Daily Weather History Graph

Search for Another Location

Airport or City:

Trip Planner

Search our weather history database for the weather conditions in past years. The results will help you decide how hot, cold, wet, or windy it might be!

Date:

Astronomy

Nov. 10, 2012 Rise Set
Actual Time 7:17 AM CST 5:55 PM CST
Civil Twilight 6:51 AM CST 6:21 PM CST
Nautical Twilight 6:22 AM CST 6:50 PM CST
Astronomical Twilight 5:53 AM CST 7:19 PM CST
Moon 3:36 AM CST (11/10) 3:34 PM CST (11/10)
Length of Visible Light 11h 30m
Length of Day
10h 38m
Waning Crescent, 14% of the Moon is Illuminated
Nov 10
Waning Crescent
Nov 13
New
Nov 20
First Quarter
Nov 28
Full
Dec 6
Last Quarter

Hourly Weather History & Observations

Time (CST) Temp. Dew Point Humidity Pressure Visibility Wind Dir Wind Speed Gust Speed Precip Events Conditions
12:53 AM 64.9 °F 55.0 °F 70% 29.74 in 10.0 mi SE 15.0 mph - N/A   Clear
1:53 AM 64.9 °F 54.0 °F 68% 29.72 in 10.0 mi SE 13.8 mph - N/A   Partly Cloudy
2:53 AM 63.0 °F 53.1 °F 70% 29.71 in 10.0 mi SE 11.5 mph - N/A   Clear
3:53 AM 61.0 °F 53.1 °F 75% 29.73 in 10.0 mi SSE 8.1 mph - N/A   Clear
4:53 AM 59.0 °F 52.0 °F 78% 29.72 in 10.0 mi SE 9.2 mph - N/A   Clear
5:53 AM 57.0 °F 51.1 °F 81% 29.74 in 10.0 mi SE 9.2 mph - N/A   Clear
6:53 AM 55.9 °F 50.0 °F 80% 29.75 in 10.0 mi SE 8.1 mph - N/A   Clear
7:53 AM 57.0 °F 52.0 °F 83% 29.76 in 10.0 mi SE 10.4 mph - N/A   Clear
8:53 AM 62.1 °F 53.1 °F 72% 29.76 in 10.0 mi SE 12.7 mph - N/A   Clear
9:53 AM 68.0 °F 52.0 °F 56% 29.75 in 10.0 mi SSE 15.0 mph - N/A   Clear
10:53 AM 75.0 °F 51.1 °F 43% 29.72 in 10.0 mi SSE 13.8 mph 20.7 mph N/A   Clear
11:53 AM 82.0 °F 45.0 °F 27% 29.68 in 10.0 mi South 16.1 mph 24.2 mph N/A   Clear
12:53 PM 84.0 °F 37.0 °F 19% 29.63 in 10.0 mi South 19.6 mph 39.1 mph N/A   Clear
1:53 PM 84.9 °F 30.9 °F 14% 29.59 in 10.0 mi SW 21.9 mph 33.4 mph N/A   Clear
2:53 PM 82.9 °F 30.0 °F 15% 29.57 in 10.0 mi WSW 21.9 mph 29.9 mph N/A   Clear
3:53 PM 82.0 °F 30.9 °F 16% 29.57 in 10.0 mi SW 21.9 mph 34.5 mph N/A   Clear
4:53 PM 82.9 °F 34.0 °F 17% 29.56 in 10.0 mi SSW 23.0 mph 28.8 mph N/A   Clear
5:53 PM 79.0 °F 37.0 °F 22% 29.56 in 10.0 mi South 13.8 mph - N/A   Scattered Clouds
6:53 PM 77.0 °F 37.9 °F 24% 29.58 in 10.0 mi South 13.8 mph - N/A   Clear
7:53 PM 73.9 °F 48.9 °F 41% 29.60 in 10.0 mi South 15.0 mph - N/A   Mostly Cloudy
8:08 PM 73.4 °F 48.2 °F 41% 29.75 in 10.0 mi Variable 4.6 mph 19.6 mph 0.00 in Rain , Thunderstorm Light Thunderstorms and Rain
8:27 PM 69.8 °F 51.8 °F 53% 29.74 in 10.0 mi South 10.4 mph - 0.00 in   Overcast
8:53 PM 70.0 °F 55.9 °F 61% 29.65 in 10.0 mi South 9.2 mph - 0.00 in   Overcast
9:53 PM 66.2 °F 57.2 °F 73% 29.78 in 10.0 mi SW 5.8 mph - N/A   Overcast
10:53 PM 66.0 °F 46.0 °F 48% 29.68 in 7.0 mi WSW 9.2 mph - N/A   Overcast
11:53 PM 64.0 °F 37.0 °F 37% 29.67 in 10.0 mi West 11.5 mph - N/A   Overcast